[[{"header":{"parameterUnit":"m.s-1","parameterCategory":1,"la1":30.2991,"la2":30.254,"lo1":-89.0895,"lo2":-89.0444,"dy":0.0017,"dx":0.0017,"nx":28,"ny":28,"refTime":"2024-04-26T09:00:00:Z","depth":0,"parameterNumber":2,"parameterNumberName":"U-component_of_WINDS"},"data":[0,0,0,0,0,0,0,0,0,0,0,0,0,0,0,0,0,0,0,0,0,0,0,0,0,0,0,0,0,0,0,0,0,0,0,0,0,0,0,0,0,0,0,0,0,0,0,0,0,0,0,0,0,0,0,0,0,0,-4.3843,-4.3843,0,-4.388,-4.3881,-4.3881,-4.3876,-4.3875,-4.3875,-4.3874,-4.3909,-4.3911,-4.3912,0,0,0,0,0,0,0,0,0,0,0,0,0,-4.3765,-4.3766,-4.3843,-4.3843,-4.3844,-4.388,-4.3881,-4.3881,-4.3876,-4.3875,-4.3875,-4.3874,-4.3909,-4.3911,-4.3913,0,0,0,0,0,0,0,0,0,0,0,0,0,-4.38,-4.3766,-4.3843,-4.3846,-4.3846,-4.388,-4.3881,-4.3881,-4.3876,-4.3875,-4.3874,-4.3874,-4.3908,-4.3911,-4.3913,-4.3945,0,0,-4.392,-4.3921,0,0,0,0,0,0,0,0,-4.3798,-4.3803,-4.3845,-4.3845,-4.3846,-4.3873,-4.3866,-4.3903,-4.3876,-4.3865,-4.3874,-4.3873,-4.3898,-4.3901,-4.391,-4.3947,-4.3948,-4.392,-4.3921,-4.3922,-4.3923,0,0,0,0,0,0,0,-4.3795,-4.3801,-4.3857,-4.3845,-4.3846,-4.3844,-4.3848,-4.3873,-4.3886,-4.3866,-4.3865,-4.387,-4.3898,-4.3908,-4.391,-4.3949,-4.392,-4.3922,-4.3923,-4.3924,-4.4014,-4.4015,0,0,0,0,0,0,-4.3793,-4.3799,-4.3856,-4.3859,-4.3819,-4.3846,-4.3851,-4.3865,-4.3886,-4.3888,-4.3871,-4.387,-4.3904,-4.3908,-4.3912,-4.395,-4.3922,-4.3924,-4.3926,-4.4013,-4.4014,-4.4015,0,0,0,0,0,0,-4.3791,-4.3798,-4.3855,-4.3829,-4.3836,-4.3849,-4.3865,-4.3866,-4.3876,-4.3889,-4.3891,-4.3878,-4.3904,-4.3908,-4.3937,-4.3951,-4.3925,-4.3927,-4.4011,-4.4013,-4.4014,-4.4027,0,0,0,0,0,0,-4.3789,-4.3797,-4.381,-4.3829,-4.3837,-4.388,-4.3866,-4.3868,-4.388,-4.3879,-4.3897,-4.3899,-4.3903,-4.3934,-4.3939,-4.3954,-4.3929,-4.401,-4.4012,-4.4014,-4.4026,-4.4029,-4.4032,0,0,0,0,0,-4.3786,-4.3811,-4.3811,-4.3817,-4.3854,-4.3881,-4.3885,-4.389,-4.3881,-4.3894,-4.3903,-4.3899,-4.3949,-4.3937,-4.3943,-4.3958,-4.4009,-4.4012,-4.4014,-4.4024,-4.4028,-4.4032,0,0,0,0,0,0,-4.3792,-4.3814,-4.3813,-4.3846,-4.3862,-4.388,-4.3896,-4.3895,-4.3912,-4.3911,-4.3915,-4.3919,-4.3948,-4.3956,-4.3942,-4.3991,-4.3978,-4.3982,-4.3984,-4.3988,-4.3991,-4.3987,-4.3931,0,0,0,0,0,-4.3798,-4.3819,-4.3836,-4.3863,-4.3872,-4.3883,-4.3894,-4.3897,-4.3913,-4.3919,-4.393,-4.3945,-4.3965,-4.3977,-4.3996,-4.4028,-4.4031,-4.4042,-4.4045,-4.4047,-4.405,-4.4067,-4.4071,-4.4023,-4.4023,-4.4023,0,0,-4.3808,-4.3823,-4.3836,-4.3865,-4.3877,-4.3898,-4.3888,-4.391,-4.3925,-4.3922,-4.395,-4.3959,-4.3976,-4.4006,-4.402,-4.4014,-4.4064,-4.405,-4.4052,-4.4053,-4.407,-4.4074,-4.4078,-4.4024,-4.4024,-4.4024,0,0,-4.3838,-4.3852,-4.3876,-4.3889,-4.3909,-4.3916,-4.3922,-4.3941,-4.3947,-4.3975,-4.3973,-4.3991,-4.4025,-4.4037,-4.4047,-4.4083,-4.408,-4.409,-4.4105,-4.4122,-4.4126,-4.4129,-4.414,-4.4145,-4.4092,-4.4092,-4.4092,0,-4.3848,-4.3881,-4.3888,-4.3911,-4.3923,-4.3924,-4.3947,-4.396,-4.3984,-4.3992,-4.3986,-4.4028,-4.4039,-4.4072,-4.4081,-4.409,-4.4096,-4.4086,-4.4125,-4.4128,-4.4131,-4.4142,-4.4147,-4.4093,-4.4093,-4.4093,-4.4093,0,-4.3892,-4.3914,-4.3931,-4.3956,-4.3971,-4.3994,-4.4004,-4.4018,-4.402,-4.4028,-4.4056,-4.4071,-4.4092,-4.41,-4.4102,-4.4133,-4.4129,-4.4124,-4.4111,-4.4137,-4.4147,-4.4151,-4.4095,-4.4094,-4.4094,-4.4094,0,0,-4.3924,-4.3954,-4.396,-4.3971,-4.3994,-4.401,-4.4034,-4.4056,-4.4067,-4.4085,-4.4103,-4.4132,-4.4128,-4.414,-4.4143,-4.4158,-4.4185,-4.4151,-4.4151,-4.4155,-4.4219,-4.4221,-4.4226,-4.4184,-4.4184,-4.4185,-4.4217,0,-4.3955,-4.3997,-4.4005,-4.404,-4.4061,-4.4062,-4.4082,-4.4098,-4.4106,-4.4124,-4.4133,-4.4153,-4.4147,-4.4154,-4.4169,-4.4178,-4.4197,-4.4176,-4.4199,-4.42,-4.4193,-4.4231,-4.4234,-4.4263,-4.4221,-4.4222,-4.4222,0,-4.3996,-4.4015,-4.4053,-4.4074,-4.4082,-4.41,-4.4121,-4.4139,-4.4157,-4.4162,-4.4176,-4.4178,-4.4202,-4.419,-4.4221,-4.4207,-4.4217,-4.4224,-4.4225,-4.4225,-4.4211,-4.4231,-4.4272,-4.4276,-4.4229,-4.4228,-4.4228,0,-4.4013,-4.4049,-4.4077,-4.4087,-4.4111,-4.4124,-4.4134,-4.4151,-4.4164,-4.4183,-4.4191,-4.4212,-4.4222,-4.4238,-4.4245,-4.4236,-4.4276,-4.4265,-4.428,-4.428,-4.4286,-4.4285,-4.4328,-4.4296,-4.4296,-4.4296,-4.4296,0,-4.4046,-4.4068,-4.4085,-4.4102,-4.4127,-4.4137,-4.4161,-4.4172,-4.4187,-4.4205,-4.4208,-4.4225,-4.4235,-4.4253,-4.4259,-4.4284,-4.4289,-4.4293,-4.4294,-4.4291,-4.4291,-4.4296,-4.4294,-4.4297,-4.4297,-4.4297,-4.4297,0,-4.4069,-4.4081,-4.4111,-4.4132,-4.4138,-4.4156,-4.4174,-4.419,-4.4199,-4.4222,-4.4228,-4.4242,-4.4264,-4.4274,-4.43,-4.4304,-4.4332,-4.4332,-4.4326,-4.4325,-4.4339,-4.4337,-4.4385,-4.4391,-4.4358,-4.4358,-4.4358,0,-4.4087,-4.4105,-4.4129,-4.4142,-4.4153,-4.4174,-4.4187,-4.4198,-4.4211,-4.4234,-4.4247,-4.4269,-4.4286,-4.4321,-4.4333,-4.4353,-4.4353,-4.4368,-4.4355,-4.4352,-4.4351,-4.4349,-4.435,-4.437,-4.437,-4.437,-4.437,0,-4.4119,-4.4124,-4.4144,-4.4166,-4.4183,-4.4201,-4.4218,-4.4228,-4.4241,-4.4256,-4.4279,-4.4293,-4.4321,-4.4342,-4.4363,-4.4373,-4.4373,-4.4375,-4.4379,-4.4376,-4.437,-4.4372,-4.433,-4.4373,-4.4373,-4.4372,-4.4372,-4.4372,-4.4139,-4.4155,-4.4174,-4.4196,-4.4211,-4.4227,-4.4243,-4.4255,-4.4275,-4.4298,-4.4303,-4.4327,-4.4345,-4.4374,-4.4385,-4.4403,-4.4399,-4.4405,-4.4407,-4.4408,-4.4408,-4.437,-4.4407,-4.4407,-4.4407,-4.4407,-4.4407,0,-4.4169,-4.4182,-4.4202,-4.4227,-4.4245,-4.4246,-4.4265,-4.4279,-4.43,-4.4318,-4.4336,-4.4361,-4.4383,-4.4397,-4.4418,-4.443,-4.4431,-4.4435,-4.4433,-4.4435,-4.4411,-4.4404,-4.4434,-4.4434,-4.4434,-4.4434,-4.4434,-4.4434,-4.4186,-4.4213,-4.4221,-4.4255,-4.4268,-4.4292,-4.4302,-4.4317,-4.4331,-4.436,-4.4378,-4.4388,-4.4404,-4.4427,-4.4446,-4.445,-4.4456,-4.4461,-4.4464,-4.444,-4.4437,-4.4434,-4.4428,-4.4462,-4.4462,-4.4487,-4.4487,-4.4487]},{"header":{"parameterUnit":"m.s-1","parameterCategory":1,"la1":30.2991,"la2":30.254,"lo1":-89.0895,"lo2":-89.0444,"dy":0.0017,"dx":0.0017,"nx":28,"ny":28,"refTime":"2024-04-26T09:00:00:Z","depth":0,"parameterNumber":3,"parameterNumberName":"V-component_of_WINDS"},"data":[0,0,0,0,0,0,0,0,0,0,0,0,0,0,0,0,0,0,0,0,0,0,0,0,0,0,0,0,0,0,0,0,0,0,0,0,0,0,0,0,0,0,0,0,0,0,0,0,0,0,0,0,0,0,0,0,0,0,4.854,4.8541,0,4.8672,4.8674,4.8675,4.8698,4.8697,4.8696,4.8695,4.8827,4.8831,4.8836,0,0,0,0,0,0,0,0,0,0,0,0,0,4.8304,4.8308,4.854,4.8541,4.8543,4.8672,4.8674,4.8676,4.8698,4.8697,4.8696,4.8695,4.8825,4.8831,4.8836,0,0,0,0,0,0,0,0,0,0,0,0,0,4.8418,4.831,4.8539,4.857,4.8574,4.8672,4.8674,4.8676,4.8699,4.8697,4.8695,4.8694,4.8824,4.883,4.8837,4.8912,0,0,4.8858,4.8861,0,0,0,0,0,0,0,0,4.8412,4.8427,4.8564,4.8568,4.8573,4.8667,4.8639,4.8755,4.8699,4.8651,4.8695,4.8693,4.8775,4.8786,4.8814,4.8918,4.8924,4.8858,4.8863,4.8865,4.8867,0,0,0,0,0,0,0,4.8404,4.8421,4.8592,4.8566,4.8571,4.8576,4.8591,4.8661,4.8721,4.8655,4.8657,4.8673,4.8777,4.8807,4.8817,4.8926,4.8858,4.8864,4.8868,4.8871,4.91,4.9102,0,0,0,0,0,0,4.8391,4.8415,4.8588,4.8596,4.8487,4.8582,4.8598,4.8638,4.872,4.8731,4.8674,4.8673,4.8797,4.8809,4.8822,4.8917,4.8865,4.8872,4.8876,4.9098,4.9101,4.9103,0,0,0,0,0,0,4.8386,4.8406,4.8582,4.8506,4.8529,4.8588,4.8633,4.8642,4.8672,4.8734,4.8745,4.8695,4.8796,4.8812,4.889,4.8921,4.8875,4.8881,4.9096,4.9099,4.9102,4.9105,0,0,0,0,0,0,4.8379,4.8404,4.8434,4.8506,4.8533,4.8649,4.8635,4.8646,4.8685,4.8685,4.8756,4.8766,4.8796,4.888,4.8897,4.893,4.8886,4.9094,4.9098,4.9101,4.9103,4.9108,4.9113,0,0,0,0,0,4.837,4.8428,4.8435,4.8456,4.8571,4.8651,4.8666,4.87,4.8687,4.8717,4.8757,4.8764,4.8915,4.8888,4.8907,4.8942,4.9092,4.9096,4.9101,4.9101,4.9107,4.9113,0,0,0,0,0,0,4.8356,4.8438,4.8447,4.853,4.8584,4.8655,4.8694,4.8705,4.8763,4.876,4.8799,4.8815,4.8891,4.8924,4.8892,4.902,4.9002,4.9011,4.8996,4.9002,4.9007,4.8997,4.8892,0,0,0,0,0,4.8362,4.8421,4.849,4.8557,4.8583,4.8634,4.867,4.8692,4.8748,4.877,4.8816,4.8869,4.8929,4.8968,4.9026,4.9108,4.9124,4.9142,4.9147,4.9151,4.9158,4.9205,4.9214,4.9118,4.9118,4.9118,0,0,4.8376,4.8429,4.8463,4.8555,4.8599,4.8659,4.8653,4.8715,4.876,4.8779,4.8856,4.8892,4.8954,4.9035,4.9073,4.9065,4.9188,4.9156,4.9159,4.9164,4.921,4.9219,4.9227,4.9121,4.912,4.912,0,0,4.8432,4.8478,4.8539,4.8584,4.8652,4.8685,4.87,4.877,4.8795,4.8873,4.889,4.8943,4.9044,4.9089,4.9125,4.92,4.9208,4.9218,4.9243,4.9289,4.9296,4.9303,4.9331,4.934,4.9224,4.9224,4.9224,0,4.8441,4.8532,4.8569,4.8632,4.8672,4.8695,4.8757,4.8798,4.8881,4.8908,4.8899,4.9028,4.9072,4.9164,4.9182,4.921,4.9228,4.9209,4.9293,4.93,4.9307,4.9333,4.9343,4.9225,4.9225,4.9225,4.9225,0,4.854,4.8603,4.8644,4.8725,4.877,4.8832,4.8878,4.8919,4.8937,4.8972,4.9052,4.9105,4.9175,4.9199,4.9216,4.9294,4.9287,4.9285,4.9268,4.9316,4.9342,4.9352,4.9226,4.9226,4.9226,4.9225,0,0,4.8589,4.8691,4.8706,4.8744,4.882,4.887,4.8933,4.9004,4.9038,4.9094,4.9149,4.9236,4.9235,4.9275,4.9298,4.9338,4.9395,4.9331,4.9333,4.9342,4.9485,4.9486,4.9497,4.9402,4.9404,4.9406,4.948,0,4.8655,4.877,4.8806,4.8902,4.8961,4.8984,4.9039,4.9092,4.9127,4.9181,4.9218,4.928,4.9274,4.9299,4.9339,4.938,4.9425,4.9375,4.9452,4.9455,4.9436,4.9511,4.9512,4.9579,4.949,4.9492,4.9493,0,4.8746,4.8806,4.8909,4.898,4.9006,4.9055,4.9124,4.9176,4.9236,4.9258,4.9305,4.9325,4.9392,4.9372,4.9465,4.943,4.9464,4.9489,4.9492,4.9501,4.9477,4.9521,4.9602,4.9612,4.9509,4.9508,4.9507,0,4.8773,4.8879,4.8955,4.8986,4.9071,4.9105,4.9141,4.9201,4.9241,4.9301,4.9327,4.9393,4.9429,4.9479,4.9516,4.9498,4.9606,4.9589,4.9626,4.9626,4.9648,4.9646,4.9735,4.9669,4.9669,4.9669,4.9669,0,4.8843,4.8904,4.8968,4.9015,4.9085,4.9125,4.9193,4.9231,4.9284,4.9338,4.9361,4.9411,4.9457,4.9513,4.9543,4.9616,4.9632,4.9651,4.9658,4.9649,4.9647,4.9672,4.9668,4.9672,4.9671,4.9671,4.967,0,4.8884,4.8929,4.9013,4.9087,4.9107,4.9155,4.9218,4.9264,4.93,4.9368,4.9386,4.9442,4.9509,4.9552,4.9637,4.9657,4.9737,4.9743,4.9717,4.9721,4.9756,4.9752,4.9864,4.9881,4.9804,4.9805,4.9805,0,4.8926,4.8974,4.9054,4.9092,4.913,4.9191,4.9233,4.9275,4.9317,4.9391,4.9428,4.9498,4.9555,4.9662,4.9709,4.9775,4.9782,4.9817,4.9792,4.9782,4.9783,4.978,4.9786,4.9821,4.9822,4.9822,4.9822,0,4.8995,4.9015,4.9075,4.9144,4.9194,4.925,4.9305,4.9335,4.9387,4.9433,4.9504,4.9548,4.9637,4.9705,4.9775,4.9812,4.9826,4.983,4.9843,4.9834,4.9817,4.9827,4.9729,4.9827,4.9827,4.9826,4.9826,4.9826,4.9038,4.9083,4.9146,4.9213,4.926,4.9311,4.9359,4.9401,4.9461,4.9537,4.9558,4.9631,4.9691,4.9787,4.9826,4.9884,4.9879,4.9896,4.9901,4.9905,4.9906,4.9808,4.9896,4.9896,4.9896,4.9896,4.9896,0,4.9109,4.9152,4.9213,4.9291,4.9343,4.9353,4.9416,4.9459,4.9524,4.9579,4.9636,4.9717,4.9784,4.9838,4.9907,4.9943,4.9951,4.9959,4.9957,4.9966,4.9906,4.9889,4.9952,4.9952,4.9952,4.9952,4.9952,4.9952,4.9152,4.9229,4.9257,4.9357,4.9399,4.9472,4.9507,4.9555,4.96,4.969,4.9746,4.9781,4.9837,4.991,4.9972,4.9986,5.001,5.0018,5.0033,4.9976,4.997,4.9964,4.9948,5.0023,5.0023,5.0088,5.0089,5.0089]}]]